Torna al catalogo

COSMOS 736

AttivoMilitareLEO
NORAD 7825·PAYLOAD·🇷🇺 Russia

Lanciato May 28, 1975 da Plesetsk Cosmodrome

Loading…

Prossimi Passaggi (prossime 24 ore)

TLE

AggiornatoSource: Space-Track

Epoca: Sep 14, 2026, 11:58 UTC

1 07825U 75045E   26257.49911428  .00000004  00000-0  13842-3 0  9998
2 07825  74.0210 332.1178 0010880 354.6195  16.8798 12.46889882335076

Traccia COSMOS 736 in tempo reale con AllMySat

Download on the App Store